When you browse on this site, cookies collect data to enhance your experience and personalize the content and advertising you see.
Visit our Privacy Policy to learn more. By continuing to use the site, you agree to this use of cookies and data.
  • In Sweden
  • List of Countries
  • For 7 days
  • Water Temperature
  • Weather Map
  • Weather Widgets
  • user-avatar
    Login

    Hourly Weather Kyrova

    Today, 20 September, Friday

    Time Temperature Precipitation Wind Pressure Humidity
    00:00 +4°C° 0 mm 4 mps 731 mmHg 87%
    01:00 +3°C° 0 mm 3 mps 732 mmHg 85%
    02:00 +3°C° 0 mm 3 mps 733 mmHg 84%
    03:00 +3°C° 0 mm 3 mps 733 mmHg 83%
    04:00 +2°C° 0 mm 3 mps 734 mmHg 85%
    05:00 +2°C° 0 mm 3 mps 735 mmHg 88%
    06:00 +1°C° 0 mm 3 mps 735 mmHg 91%
    07:00 0°C° 0 mm 3 mps 736 mmHg 94%
    08:00 +2°C° 0 mm 3 mps 736 mmHg 85%
    09:00 +3°C° 0 mm 3 mps 737 mmHg 77%
    10:00 +5°C° 0 mm 3 mps 738 mmHg 70%
    11:00 +5°C° 0.1 mm 3 mps 738 mmHg 67%
    12:00 +6°C° 0.1 mm 4 mps 738 mmHg 64%
    13:00 +7°C° 0.1 mm 4 mps 738 mmHg 60%
    14:00 +8°C° 0.1 mm 3 mps 739 mmHg 60%
    15:00 +7°C° 0.1 mm 3 mps 739 mmHg 60%
    16:00 +7°C° 0.1 mm 3 mps 739 mmHg 60%
    17:00 +6°C° 0 mm 2 mps 739 mmHg 69%
    18:00 +4°C° 0 mm 2 mps 740 mmHg 77%
    19:00 +3°C° 0 mm 1 mps 740 mmHg 85%
    20:00 +3°C° 0 mm 1 mps 740 mmHg 87%
    21:00 +2°C° 0 mm 1 mps 741 mmHg 89%
    22:00 +2°C° 0 mm 1 mps 741 mmHg 91%
    23:00 +2°C° 0 mm 1 mps 741 mmHg 92%

    Tomorrow, 21 September, Saturday

    Time Temperature Precipitation Wind Pressure Humidity
    00:00 +1°C° 0 mm 1 mps 741 mmHg 93%
    01:00 +1°C° 0 mm 1 mps 741 mmHg 94%
    02:00 +1°C° 0 mm 1 mps 741 mmHg 93%
    03:00 +1°C° 0 mm 1 mps 741 mmHg 92%
    04:00 +1°C° 0 mm 1 mps 741 mmHg 91%
    05:00 +2°C° 0 mm 1 mps 741 mmHg 90%
    06:00 +2°C° 0 mm 1 mps 740 mmHg 90%
    07:00 +1°C° 0 mm 2 mps 740 mmHg 90%
    08:00 +3°C° 0 mm 2 mps 740 mmHg 88%
    09:00 +4°C° 0 mm 2 mps 740 mmHg 85%
    10:00 +5°C° 0 mm 2 mps 740 mmHg 83%
    11:00 +6°C° 0.1 mm 2 mps 739 mmHg 80%
    12:00 +7°C° 0.1 mm 2 mps 739 mmHg 76%
    13:00 +8°C° 0.1 mm 3 mps 738 mmHg 72%
    14:00 +7°C° 0.2 mm 2 mps 738 mmHg 76%
    15:00 +7°C° 0.2 mm 2 mps 738 mmHg 81%
    16:00 +7°C° 0.2 mm 2 mps 737 mmHg 85%
    17:00 +7°C° 1.4 mm 1 mps 737 mmHg 89%
    18:00 +6°C° 1.4 mm 1 mps 736 mmHg 93%
    19:00 +6°C° 1.4 mm 1 mps 736 mmHg 97%
    20:00 +5°C° 1 mm 1 mps 736 mmHg 97%
    21:00 +5°C° 1 mm 1 mps 735 mmHg 97%
    22:00 +4°C° 1 mm 0 mps 735 mmHg 97%
    23:00 +5°C° 0 mm 1 mps 734 mmHg 97%

    Day after tomorrow, 22 September, Sunday

    Time Temperature Precipitation Wind Pressure Humidity
    00:00 +5°C° 0 mm 1 mps 734 mmHg 98%
    01:00 +5°C° 0 mm 1 mps 734 mmHg 98%
    02:00 +4°C° 0 mm 1 mps 734 mmHg 98%
    03:00 +4°C° 0 mm 1 mps 733 mmHg 98%
    04:00 +4°C° 0 mm 1 mps 733 mmHg 97%
    05:00 +4°C° 0 mm 1 mps 732 mmHg 97%
    06:00 +4°C° 0 mm 1 mps 732 mmHg 97%
    07:00 +2°C° 0 mm 2 mps 732 mmHg 97%
    08:00 +3°C° 0 mm 2 mps 732 mmHg 94%
    09:00 +4°C° 0 mm 2 mps 731 mmHg 92%
    10:00 +3°C° 0 mm 3 mps 731 mmHg 89%
    11:00 +3°C° 0.1 mm 3 mps 731 mmHg 86%
    12:00 +4°C° 0.1 mm 3 mps 731 mmHg 83%
    13:00 +4°C° 0.1 mm 3 mps 730 mmHg 81%
    14:00 +4°C° 0 mm 3 mps 730 mmHg 77%
    15:00 +6°C° 0 mm 2 mps 730 mmHg 73%
    16:00 +6°C° 0 mm 2 mps 730 mmHg 69%
    17:00 +5°C° 0.1 mm 1 mps 730 mmHg 77%
    18:00 +4°C° 0.1 mm 1 mps 730 mmHg 84%
    19:00 +1°C° 0.1 mm 0 mps 730 mmHg 91%
    20:00 +1°C° 0 mm 0 mps 730 mmHg 92%
    21:00 0°C° 0 mm 0 mps 730 mmHg 93%
    22:00 0°C° 0 mm 0 mps 730 mmHg 94%
    23:00 -1°C° 0 mm 0 mps 730 mmHg 95%

    23 September, Monday

    Time Temperature Precipitation Wind Pressure Humidity
    00:00 -1°C° 0 mm 0 mps 730 mmHg 95%
    01:00 -1°C° 0 mm 0 mps 730 mmHg 96%
    02:00 -1°C° 0 mm 0 mps 730 mmHg 96%
    03:00 -1°C° 0 mm 0 mps 730 mmHg 96%
    04:00 -2°C° 0 mm 0 mps 730 mmHg 96%
    05:00 -1°C° 0 mm 0 mps 730 mmHg 95%
    06:00 -1°C° 0 mm 0 mps 730 mmHg 94%
    07:00 0°C° 0 mm 0 mps 730 mmHg 93%
    08:00 +2°C° 0 mm 0 mps 730 mmHg 84%
    09:00 +4°C° 0 mm 0 mps 730 mmHg 75%
    10:00 +6°C° 0 mm 0 mps 730 mmHg 66%
    11:00 +7°C° 0 mm 1 mps 730 mmHg 62%
    12:00 +8°C° 0 mm 1 mps 729 mmHg 58%
    13:00 +8°C° 0 mm 1 mps 729 mmHg 53%
    14:00 +7°C° 0 mm 2 mps 729 mmHg 53%
    15:00 +7°C° 0 mm 2 mps 729 mmHg 54%
    16:00 +5°C° 0 mm 3 mps 728 mmHg 54%
    17:00 +4°C° 0 mm 3 mps 729 mmHg 62%
    18:00 +2°C° 0 mm 3 mps 729 mmHg 70%
    19:00 0°C° 0 mm 3 mps 729 mmHg 78%
    20:00 +1°C° 0 mm 2 mps 729 mmHg 81%
    21:00 -1°C° 0 mm 2 mps 729 mmHg 84%
    22:00 -2°C° 0 mm 2 mps 730 mmHg 88%
    23:00 -1°C° 0 mm 1 mps 730 mmHg 90%

    24 September, Tuesday

    Time Temperature Precipitation Wind Pressure Humidity
    00:00 -1°C° 0 mm 1 mps 731 mmHg 92%
    01:00 -1°C° 0 mm 1 mps 731 mmHg 95%
    02:00 -2°C° 0 mm 1 mps 731 mmHg 96%
    03:00 -2°C° 0 mm 1 mps 732 mmHg 97%
    04:00 -2°C° 0 mm 1 mps 732 mmHg 97%
    05:00 -2°C° 0 mm 1 mps 733 mmHg 96%
    06:00 -1°C° 0 mm 1 mps 733 mmHg 94%
    07:00 -1°C° 0 mm 1 mps 733 mmHg 92%
    08:00 -1°C° 0 mm 2 mps 734 mmHg 84%
    09:00 +1°C° 0 mm 2 mps 734 mmHg 76%
    10:00 +2°C° 0 mm 3 mps 734 mmHg 68%
    11:00 +2°C° 0.1 mm 3 mps 735 mmHg 68%
    12:00 +2°C° 0.1 mm 3 mps 735 mmHg 69%
    13:00 +3°C° 0.1 mm 3 mps 735 mmHg 69%
    14:00 +3°C° 0.3 mm 3 mps 735 mmHg 70%
    15:00 +2°C° 0.3 mm 3 mps 736 mmHg 71%
    16:00 +2°C° 0.3 mm 3 mps 736 mmHg 72%
    17:00 +1°C° 0 mm 3 mps 736 mmHg 77%
    18:00 -1°C° 0 mm 2 mps 736 mmHg 83%
    19:00 -2°C° 0 mm 2 mps 736 mmHg 88%
    20:00 -2°C° 0 mm 2 mps 736 mmHg 86%
    21:00 -2°C° 0 mm 2 mps 737 mmHg 85%
    22:00 -2°C° 0 mm 2 mps 737 mmHg 84%
    23:00 -2°C° 0 mm 2 mps 737 mmHg 84%

    25 September, Wednesday

    Time Temperature Precipitation Wind Pressure Humidity
    00:00 -2°C° 0 mm 2 mps 737 mmHg 85%
    01:00 -2°C° 0 mm 2 mps 737 mmHg 85%
    02:00 -3°C° 0 mm 2 mps 737 mmHg 88%
    03:00 -4°C° 0 mm 3 mps 737 mmHg 91%
    04:00 -4°C° 0 mm 3 mps 737 mmHg 94%
    05:00 -2°C° 0.3 mm 3 mps 737 mmHg 94%
    06:00 -3°C° 0.3 mm 4 mps 737 mmHg 94%
    07:00 -3°C° 0.3 mm 4 mps 737 mmHg 95%
    08:00 -2°C° 0.4 mm 4 mps 737 mmHg 94%
    09:00 -1°C° 0.4 mm 4 mps 737 mmHg 93%
    10:00 -1°C° 0.4 mm 5 mps 737 mmHg 92%
    11:00 0°C° 0.3 mm 5 mps 737 mmHg 91%
    12:00 0°C° 0.3 mm 5 mps 737 mmHg 91%
    13:00 0°C° 0.3 mm 5 mps 738 mmHg 91%
    14:00 0°C° 0.3 mm 5 mps 738 mmHg 92%
    15:00 0°C° 0.3 mm 4 mps 738 mmHg 92%
    16:00 0°C° 0.3 mm 4 mps 738 mmHg 93%
    17:00 0°C° 0.3 mm 4 mps 738 mmHg 95%
    18:00 -1°C° 0.3 mm 4 mps 738 mmHg 96%
    19:00 -1°C° 0.3 mm 4 mps 738 mmHg 97%
    20:00 -1°C° 0.3 mm 4 mps 738 mmHg 97%
    21:00 -1°C° 0.3 mm 4 mps 738 mmHg 97%
    22:00 -1°C° 0.3 mm 5 mps 738 mmHg 97%
    23:00 -1°C° 0.1 mm 4 mps 738 mmHg 96%
    Show more